Location: Lhota
(50.0887°N, 14.0116°E)
Time: 20:52:00
(UTC+00:00)

Cosmos 2369 - Pass Details

Date: 19 May 2025
Orbit: 839 x 853 km, 71.0° (Epoch: 15 June)

Event Time Altitude Azimuth Distance (km) Brightness Sun altitude
Rises 21:30:42 0° 329° (NNW) 3,415 8.5 -17.2°
Reaches altitude 10° 21:33:11 10° 327° (NNW) 2,474 7.4 -17.3°
Maximum altitude 21:38:48 68° 246° (WSW) 907 3.8 -17.6°
Enters shadow 21:41:37 30° 171° (S) 1,464 4.4 -17.8°
